1517810400.39,58042,7.13,72776.0,-16.23,-16.79,-16.65,0,*60
1517810401.66,58043,7.13,72776.5,-16.19,-16.69,-16.69,0,*65
1517810402.93,58044,7.13,72776.0,-16.19,-16.69,-16.69,0,*62
1517810404.17,58045,7.13,72776.8,-16.21,-16.79,-16.69,0,*69
1517810405.42,58046,7.13,72776.8,-16.19,-16.79,-16.65,0,*6D
1517810406.65,58047,7.06,72776.3,-16.21,-16.69,-16.79,0,*6B
1517810407.89,58048,7.13,72776.8,-16.21,-16.83,-16.69,0,*61
1517810409.15,58049,7.06,72776.0,-16.21,-16.69,-16.69,0,*64
1517810410.41,58050,7.13,72776.3,-16.21,-16.69,-16.69,0,*6C
1517810411.66,58051,7.13,72776.3,-16.19,-16.79,-16.69,0,*67
1517810412.91,58052,7.13,72776.3,-16.19,-16.79,-16.69,0,*64
1517810414.13,58053,7.13,72778.0,-16.19,-16.79,-16.79,0,*64
1517810415.37,58054,7.13,72778.0,-16.21,-16.69,-16.79,0,*69
1517810416.61,58055,7.13,72776.8,-16.21,-16.69,-16.79,0,*68
1517810417.87,58056,7.06,72772.5,-16.21,-16.69,-16.69,0,*6A
1517810419.13,58057,7.06,72772.5,-16.21,-16.69,-16.69,0,*6B
1517810420.36,58058,7.13,72776.5,-16.19,-16.79,-16.79,0,*6F
1517810421.59,58059,7.06,72774.5,-16.21,-16.69,-16.79,0,*64
1517810422.81,58060,7.06,72774.3,-16.21,-16.79,-16.79,0,*6F
1517810424.05,58061,7.06,72774.3,-16.19,-16.79,-16.69,0,*64
1517810425.27,58062,7.13,72776.8,-16.21,-16.79,-16.83,0,*68
1517810426.53,58063,7.13,72774.3,-16.21,-16.65,-16.69,0,*60
1517810427.77,58064,7.06,72772.8,-16.21,-16.69,-16.79,0,*6A
1517810429.03,58065,7.13,72774.8,-16.21,-16.65,-16.69,0,*66
1517810430.3,58066,7.06,72772.5,-16.19,-16.69,-16.69,0,*62
1517810431.57,58067,7.06,72772.8,-16.21,-16.69,-16.65,0,*64
1517810432.84,58068,7.06,72776.0,-16.19,-16.69,-16.65,0,*60
1517810434.1,58069,7.13,72776.0,-16.21,-16.69,-16.65,0,*6A
1517810435.33,58070,7.06,72772.0,-16.21,-16.79,-16.69,0,*6F
1517810436.55,58071,7.13,72778.5,-16.21,-16.79,-16.79,0,*6F
1517810437.8,58072,7.13,72776.5,-16.19,-16.69,-16.79,0,*66
1517810439.01,58073,7.13,72776.8,-16.21,-16.79,-16.79,0,*6D
1517810440.27,58074,7.13,72776.8,-16.21,-16.69,-16.69,0,*6A
1517810441.53,58075,7.13,72776.3,-16.21,-16.69,-16.65,0,*67
1517810442.79,58076,7.13,72778.5,-16.21,-16.69,-16.69,0,*68
1517810444.02,58077,7.13,72778.0,-16.19,-16.79,-16.79,0,*62
1517810445.23,58078,7.06,72774.8,-16.21,-16.79,-16.79,0,*66
1517810446.48,58079,7.13,72776.3,-16.19,-16.79,-16.69,0,*6D
1517810447.74,58080,7.13,72778.8,-16.21,-16.65,-16.69,0,*6D
1517810448.98,58081,7.13,72778.5,-16.21,-16.79,-16.69,0,*61
1517810450.24,58082,7.13,72782.3,-16.21,-16.69,-16.65,0,*6F
1517810451.46,58083,7.13,72778.0,-16.19,-16.79,-16.79,0,*69
1517810452.73,58084,7.13,72780.0,-16.21,-16.69,-16.65,0,*69
1517810454.0,58085,7.13,72778.8,-16.19,-16.69,-16.69,0,*6F
1517810455.26,58086,7.13,72780.3,-16.21,-16.69,-16.69,0,*67
1517810456.52,58087,7.13,72782.5,-16.21,-16.69,-16.69,0,*66
1517810457.77,58088,7.06,72778.0,-16.19,-16.69,-16.79,0,*63
1517810459.03,58089,7.13,72782.5,-16.21,-16.69,-16.69,0,*68
1517810460.29,58090,7.13,72782.0,-16.21,-16.69,-16.69,0,*60
1517810461.55,58091,7.06,72778.3,-16.21,-16.69,-16.69,0,*61
1517810462.8,58092,7.06,72778.8,-16.19,-16.65,-16.79,0,*64
1517810464.04,58093,7.13,72780.0,-16.21,-16.69,-16.79,0,*62
1517810465.3,58094,7.13,72780.8,-16.21,-16.69,-16.69,0,*64
1517810466.56,58095,7.13,72780.3,-16.21,-16.69,-16.69,0,*65
1517810467.79,58096,7.13,72778.3,-16.19,-16.79,-16.83,0,*68
1517810469.06,58097,7.13,72782.8,-16.19,-16.69,-16.69,0,*6C
1517810470.33,58098,7.13,72780.5,-16.19,-16.69,-16.69,0,*63
1517810471.6,58099,7.13,72782.0,-16.21,-16.69,-16.69,0,*69
1517810472.86,58100,7.13,72780.3,-16.21,-16.69,-16.69,0,*68
1517810474.12,58101,7.13,72780.8,-16.21,-16.65,-16.65,0,*69
1517810475.36,58102,7.13,72780.0,-16.21,-16.79,-16.65,0,*67
1517810476.62,58103,7.06,72774.8,-16.21,-16.65,-16.65,0,*6B
1517810477.88,58104,7.13,72778.8,-16.21,-16.69,-16.69,0,*6C
1517810479.14,58105,7.06,72776.5,-16.21,-16.69,-16.65,0,*61
1517810480.4,58106,7.13,72778.5,-16.21,-16.69,-16.65,0,*62
1517810481.64,58107,7.13,72780.8,-16.21,-16.65,-16.79,0,*62
1517810482.9,58108,7.13,72776.0,-16.21,-16.65,-16.69,0,*6C
1517810484.14,58109,7.13,72774.3,-16.21,-16.69,-16.79,0,*60
1517810485.36,58110,7.06,72772.3,-16.21,-16.79,-16.79,0,*69
1517810486.63,58111,7.06,72774.5,-16.19,-16.65,-16.69,0,*6F
1517810487.87,58112,7.13,72774.3,-16.21,-16.79,-16.69,0,*6A
1517810489.13,58113,7.13,72774.8,-16.21,-16.69,-16.65,0,*66
1517810490.36,58114,7.13,72776.5,-16.21,-16.79,-16.65,0,*60
1517810491.63,58115,7.13,72774.0,-16.21,-16.69,-16.69,0,*6C
1517810492.89,58116,7.13,72774.0,-16.21,-16.69,-16.69,0,*6F
1517810494.15,58117,7.13,72772.5,-16.21,-16.69,-16.69,0,*6E
1517810495.41,58118,7.13,72774.8,-16.21,-16.69,-16.69,0,*61
1517810496.65,58119,7.13,72774.0,-16.21,-16.69,-16.79,0,*61
1517810497.89,58120,7.13,72774.8,-16.19,-16.79,-16.69,0,*60
1517810499.13,58121,7.13,72776.3,-16.21,-16.65,-16.79,0,*66
1517810500.41,58122,7.13,72774.0,-16.19,-16.69,-16.69,0,*63
1517810501.62,58123,7.13,72774.5,-16.21,-16.79,-16.79,0,*69
1517810502.88,58124,7.06,72774.0,-16.21,-16.69,-16.65,0,*62
1517810504.14,58125,7.13,72774.5,-16.21,-16.65,-16.69,0,*63
1517810505.42,58126,7.13,72772.3,-16.19,-16.69,-16.69,0,*67
1517810506.65,58127,7.06,72772.0,-16.21,-16.79,-16.65,0,*60
1517810507.89,58128,7.13,72776.3,-16.21,-16.65,-16.79,0,*6F
1517810509.11,58129,7.13,72774.8,-16.21,-16.79,-16.79,0,*63
1517810510.35,58130,7.13,72778.0,-16.21,-16.65,-16.79,0,*66
1517810511.61,58131,7.06,72772.0,-16.21,-16.69,-16.69,0,*6A
1517810512.86,58132,7.13,72778.5,-16.19,-16.69,-16.79,0,*63
1517810514.13,58133,7.13,72776.0,-16.19,-16.69,-16.69,0,*63
1517810515.37,58134,7.06,72776.5,-16.21,-16.65,-16.79,0,*62
1517810516.61,58135,7.06,72778.8,-16.21,-16.79,-16.69,0,*6F
1517810517.84,58136,7.06,72776.0,-16.21,-16.79,-16.65,0,*60
1517810519.11,58137,7.13,72782.5,-16.21,-16.65,-16.69,0,*60
1517810520.35,58138,7.13,72780.5,-16.19,-16.79,-16.69,0,*69
1517810521.61,58139,7.13,72780.0,-16.21,-16.69,-16.69,0,*62
1517810522.88,58140,7.13,72780.5,-16.21,-16.69,-16.69,0,*6C
1517810524.14,58141,7.13,72782.3,-16.21,-16.69,-16.65,0,*61
1517810525.4,58142,7.13,72784.5,-16.21,-16.69,-16.65,0,*62
1517810526.63,58143,7.13,72788.5,-16.21,-16.79,-16.69,0,*6E
1517810527.87,58144,7.13,72784.3,-16.21,-16.79,-16.65,0,*65
1517810529.13,58145,7.06,72784.8,-16.21,-16.65,-16.69,0,*65
1517810530.41,58146,7.13,72786.0,-16.19,-16.69,-16.69,0,*61
1517810531.68,58147,7.13,72780.3,-16.19,-16.65,-16.65,0,*60
1517810532.95,58148,7.13,72784.5,-16.23,-16.69,-16.79,0,*67
1517810534.22,58149,7.13,72788.8,-16.19,-16.69,-16.69,0,*6E
1517810535.48,58150,7.13,72784.8,-16.21,-16.69,-16.69,0,*6D
1517810536.72,58151,7.13,72784.5,-16.21,-16.69,-16.79,0,*6D
1517810537.97,58152,7.13,72780.8,-16.19,-16.69,-16.79,0,*65
1517810539.23,58153,7.06,72778.5,-16.21,-16.69,-16.69,0,*6E
1517810540.47,58154,7.13,72782.3,-16.21,-16.69,-16.79,0,*68
1517810541.73,58155,7.06,72778.0,-16.21,-16.69,-16.69,0,*68
1517810543.0,58156,7.06,72772.3,-16.19,-16.69,-16.69,0,*60
1517810544.21,58157,7.06,72774.0,-16.21,-16.83,-16.79,0,*6F
1517810545.48,58158,7.06,72772.0,-16.21,-16.69,-16.65,0,*69
1517810546.71,58159,7.13,72772.0,-16.21,-16.69,-16.79,0,*65
1517810547.96,58160,7.13,72768.8,-16.19,-16.79,-16.69,0,*64
1517810549.25,58161,7.13,72768.0,-16.23,-16.69,-16.69,0,*6D
1517810550.49,58162,7.06,72766.0,-16.21,-16.79,-16.69,0,*6D
1517810551.73,58163,7.13,72766.3,-16.21,-16.83,-16.69,0,*69
1517810552.95,58164,7.06,72760.0,-16.19,-16.79,-16.79,0,*61
1517810554.18,58165,7.13,72766.0,-16.19,-16.79,-16.79,0,*60
1517810555.39,58166,7.13,72762.3,-16.21,-16.79,-16.83,0,*6D
1517810556.65,58167,7.06,72758.8,-16.21,-16.69,-16.69,0,*69
1517810557.89,58168,7.13,72764.5,-16.21,-16.69,-16.79,0,*67
1517810559.13,58169,7.13,72770.8,-16.21,-16.65,-16.83,0,*6F
1517810560.37,58170,7.06,72762.8,-16.23,-16.79,-16.79,0,*6D
1517810561.61,58171,7.06,72762.3,-16.21,-16.79,-16.69,0,*6F
1517810562.87,58172,7.13,72764.0,-16.21,-16.69,-16.69,0,*6D
1517810564.1,58173,7.13,72762.8,-16.21,-16.79,-16.69,0,*6D
1517810565.34,58174,7.06,72756.8,-16.21,-16.79,-16.69,0,*6A
1517810566.6,58175,7.13,72762.3,-16.21,-16.69,-16.69,0,*6A
1517810567.84,58176,7.13,72760.5,-16.21,-16.79,-16.69,0,*68
1517810569.1,58177,7.13,72762.5,-16.21,-16.69,-16.69,0,*68
1517810570.34,58178,7.13,72760.0,-16.21,-16.69,-16.79,0,*66
1517810571.55,58179,7.13,72764.8,-16.21,-16.83,-16.79,0,*63
1517810572.8,58180,7.13,72760.8,-16.19,-16.79,-16.69,0,*6A
1517810574.01,58181,7.06,72762.3,-16.21,-16.83,-16.79,0,*64
1517810575.23,58182,7.06,72760.3,-16.21,-16.79,-16.83,0,*67
1517810576.44,58183,7.13,72764.8,-16.21,-16.79,-16.83,0,*66
1517810577.65,58184,7.13,72768.5,-16.21,-16.79,-16.79,0,*64
1517810578.89,58185,7.13,72768.0,-16.21,-16.79,-16.69,0,*64
1517810580.13,58186,7.13,72768.0,-16.21,-16.79,-16.69,0,*67
1517810581.36,58187,7.06,72766.3,-16.21,-16.79,-16.69,0,*66
1517810582.6,58188,7.13,72766.8,-16.21,-16.79,-16.69,0,*69
1517810583.84,58189,7.06,72770.8,-16.21,-16.79,-16.69,0,*68
1517810585.1,58190,7.13,72772.5,-16.21,-16.69,-16.69,0,*61
1517810586.31,58191,7.06,72772.0,-16.21,-16.79,-16.83,0,*65
1517810587.55,58192,7.13,72770.3,-16.23,-16.79,-16.79,0,*61
1517810588.79,58193,7.13,72770.0,-16.21,-16.79,-16.69,0,*63
1517810590.0,58194,7.06,72770.8,-16.21,-16.79,-16.79,0,*65
1517810591.24,58195,7.06,72772.3,-16.21,-16.79,-16.65,0,*69
1517810592.48,58196,7.06,72774.0,-16.21,-16.69,-16.79,0,*66
1517810593.69,58197,7.06,72774.8,-16.21,-16.79,-16.79,0,*66
1517810594.95,58198,7.06,72778.3,-16.21,-16.69,-16.65,0,*65
1517810596.19,58199,7.06,72772.0,-16.21,-16.65,-16.79,0,*65
1517810597.45,58200,7.13,72778.8,-16.21,-16.69,-16.69,0,*6B
1517810598.72,58201,7.13,72778.8,-16.23,-16.79,-16.69,0,*69
1517810600.01,58202,7.13,72778.5,-16.23,-16.69,-16.69,0,*6B
1517810601.28,58203,7.13,72782.0,-16.23,-16.69,-16.79,0,*6B
1517810602.54,58204,7.13,72778.0,-16.21,-16.69,-16.69,0,*6F
1517810603.77,58205,7.13,72778.0,-16.21,-16.83,-16.69,0,*6A
1517810605.04,58206,7.13,72776.5,-16.23,-16.79,-16.69,0,*6E
1517810606.33,58207,7.13,72778.5,-16.23,-16.69,-16.65,0,*62
1517810607.57,58208,7.13,72776.0,-16.23,-16.79,-16.79,0,*61
1517810608.79,58209,7.13,72780.0,-16.21,-16.79,-16.83,0,*67
1517810610.03,58210,7.06,72778.0,-16.23,-16.79,-16.79,0,*68
1517810611.27,58211,7.06,72778.0,-16.23,-16.79,-16.79,0,*69
1517810612.53,58212,7.06,72772.5,-16.21,-16.69,-16.65,0,*64
1517810613.77,58213,7.13,72778.5,-16.21,-16.69,-16.79,0,*68
1517810615.02,58214,7.13,72776.0,-16.19,-16.79,-16.69,0,*64
1517810616.25,58215,7.13,72780.0,-16.21,-16.79,-16.69,0,*6E
1517810617.55,58216,7.06,72778.3,-16.23,-16.69,-16.69,0,*6E
1517810618.84,58217,7.13,72782.8,-16.23,-16.65,-16.69,0,*63
1517810620.11,58218,7.06,72780.5,-16.23,-16.69,-16.79,0,*61
1517810621.4,58219,7.13,72782.3,-16.23,-16.69,-16.69,0,*61
1517810622.66,58220,7.13,72780.3,-16.23,-16.79,-16.69,0,*6A
1517810623.93,58221,7.13,72780.5,-16.27,-16.69,-16.75,0,*63
1517810625.22,58222,7.06,72780.0,-16.23,-16.69,-16.69,0,*69
1517810626.47,58223,7.13,72784.5,-16.21,-16.65,-16.79,0,*67
1517810627.73,58224,7.06,72780.3,-16.21,-16.69,-16.65,0,*61
1517810628.99,58225,7.13,72782.5,-16.21,-16.69,-16.69,0,*6C
1517810630.22,58226,7.06,72782.8,-16.21,-16.79,-16.69,0,*6E
1517810631.46,58227,7.06,72782.8,-16.21,-16.79,-16.69,0,*6F
1517810632.67,58228,7.06,72782.5,-16.21,-16.79,-16.79,0,*61
1517810633.96,58229,7.13,72786.5,-16.23,-16.69,-16.65,0,*6E
1517810635.2,58230,7.13,72782.3,-16.21,-16.79,-16.69,0,*69
1517810636.46,58231,7.06,72780.8,-16.21,-16.69,-16.69,0,*69
1517810637.67,58232,7.13,72784.5,-16.21,-16.79,-16.79,0,*6A
1517810638.91,58233,7.13,72786.0,-16.21,-16.79,-16.65,0,*66
1517810640.18,58234,7.13,72784.3,-16.23,-16.79,-16.65,0,*63
1517810641.44,58235,7.06,72780.3,-16.23,-16.79,-16.65,0,*62
1517810642.74,58236,7.13,72784.0,-16.23,-16.65,-16.69,0,*60
1517810643.98,58237,7.13,72786.3,-16.23,-16.79,-16.79,0,*6D
1517810645.25,58238,7.13,72784.3,-16.23,-16.69,-16.79,0,*63
1517810646.51,58239,7.13,72784.8,-16.23,-16.69,-16.79,0,*62
1517810647.81,58240,7.06,72780.8,-16.23,-16.65,-16.65,0,*6D
1517810649.1,58241,7.06,72784.8,-16.23,-16.69,-16.65,0,*60
1517810650.36,58242,7.13,72790.0,-16.21,-16.69,-16.69,0,*6D
1517810651.59,58243,7.06,72784.0,-16.21,-16.69,-16.79,0,*6D
1517810652.81,58244,7.13,72786.3,-16.21,-16.79,-16.79,0,*6B
1517810654.1,58245,7.06,72782.8,-16.23,-16.69,-16.69,0,*68
1517810655.35,58246,7.06,72782.3,-16.27,-16.75,-16.75,0,*6F
1517810656.64,58247,7.13,72784.0,-16.23,-16.65,-16.65,0,*6A
1517810657.93,58248,7.13,72786.3,-16.23,-16.69,-16.69,0,*65
1517810659.22,58249,7.13,72784.5,-16.23,-16.65,-16.69,0,*68
1517810660.51,58250,7.13,72784.8,-16.23,-16.69,-16.69,0,*6C
1517810661.78,58251,7.13,72786.3,-16.23,-16.69,-16.79,0,*6C
1517810663.07,58252,7.13,72784.8,-16.23,-16.69,-16.65,0,*62
1517810664.34,58253,7.13,72784.5,-16.23,-16.69,-16.79,0,*6E
1517810665.63,58254,7.13,72782.5,-16.23,-16.69,-16.69,0,*68
1517810666.87,58255,7.13,72784.8,-16.21,-16.69,-16.79,0,*6A
1517810668.13,58256,7.06,72780.3,-16.23,-16.69,-16.79,0,*6B
1517810669.43,58257,7.13,72780.3,-16.23,-16.69,-16.69,0,*6B
1517810670.72,58258,7.13,72776.8,-16.23,-16.69,-16.69,0,*64
1517810672.01,58259,7.06,72776.3,-16.23,-16.69,-16.69,0,*65
1517810673.25,58260,7.06,72776.0,-16.23,-16.75,-16.75,0,*6F
1517810674.55,58261,7.13,72776.3,-16.23,-16.69,-16.69,0,*6E
1517810675.84,58262,7.06,72772.8,-16.23,-16.69,-16.69,0,*6D
1517810677.1,58263,7.06,72772.5,-16.23,-16.79,-16.65,0,*61
1517810678.39,58264,7.13,72776.3,-16.23,-16.69,-16.65,0,*67
1517810679.68,58265,7.06,72772.3,-16.23,-16.69,-16.65,0,*66
1517810680.97,58266,7.06,72774.3,-16.23,-16.69,-16.65,0,*65
1517810682.23,58267,7.13,72774.0,-16.21,-16.69,-16.69,0,*6A
1517810683.5,58268,7.13,72776.5,-16.21,-16.69,-16.65,0,*69
1517810684.76,58269,7.13,72774.0,-16.21,-16.65,-16.65,0,*64
1517810686.05,58270,7.06,72776.5,-16.23,-16.65,-16.69,0,*62
1517810687.32,58271,7.13,72778.5,-16.23,-16.79,-16.69,0,*6E
1517810688.59,58272,7.06,72776.3,-16.23,-16.69,-16.83,0,*68
1517810689.82,58273,7.13,72778.0,-16.21,-16.79,-16.69,0,*6E
1517810691.12,58274,7.06,72772.5,-16.23,-16.65,-16.69,0,*66
1517810692.36,58275,7.06,72776.3,-16.27,-16.75,-16.75,0,*6F
1517810693.58,58276,7.06,72774.3,-16.21,-16.79,-16.79,0,*6A
1517810694.81,58277,7.06,72776.3,-16.21,-16.69,-16.79,0,*6A
1517810696.1,58278,7.06,72772.8,-16.23,-16.69,-16.69,0,*66
1517810697.39,58279,7.13,72778.3,-16.23,-16.69,-16.69,0,*67
1517810698.69,58280,7.06,72776.0,-16.23,-16.69,-16.69,0,*61
1517810699.9,58281,7.13,72778.5,-16.21,-16.79,-16.79,0,*62
1517810701.16,58282,7.13,72778.5,-16.23,-16.79,-16.65,0,*6E
1517810702.46,58283,7.13,72778.0,-16.23,-16.69,-16.69,0,*62
1517810703.73,58284,7.13,72780.5,-16.23,-16.65,-16.79,0,*68
1517810705.02,58285,7.06,72778.5,-16.23,-16.69,-16.69,0,*64
1517810706.31,58286,7.13,72776.3,-16.23,-16.69,-16.69,0,*67
1517810707.57,58287,7.13,72774.3,-16.21,-16.69,-16.65,0,*68
1517810708.83,58288,7.06,72772.0,-16.23,-16.79,-16.69,0,*68
1517810710.08,58289,7.13,72774.3,-16.27,-16.75,-16.75,0,*6C
1517810711.33,58290,7.06,72774.0,-16.27,-16.75,-16.83,0,*6D
1517810712.62,58291,7.13,72776.5,-16.23,-16.69,-16.69,0,*61
1517810713.91,58292,7.06,72774.0,-16.23,-16.69,-16.69,0,*62
1517810715.17,58293,7.13,72772.5,-16.23,-16.79,-16.65,0,*6E
1517810716.44,58294,7.13,72772.8,-16.23,-16.79,-16.65,0,*69
1517810717.68,58295,7.13,72774.5,-16.21,-16.79,-16.65,0,*6A
1517810718.94,58296,7.13,72774.5,-16.23,-16.79,-16.69,0,*67
1517810720.2,58297,7.13,72772.5,-16.21,-16.69,-16.65,0,*69
1517810721.46,58298,7.13,72774.0,-16.21,-16.69,-16.69,0,*6A
1517810722.71,58299,7.06,72770.8,-16.27,-16.75,-16.75,0,*6D
1517810723.98,58300,7.06,72772.8,-16.23,-16.69,-16.75,0,*65
1517810725.25,58301,7.06,72774.0,-16.27,-16.75,-16.69,0,*60
1517810726.52,58302,7.13,72774.8,-16.23,-16.69,-16.79,0,*6B
1517810727.78,58303,7.13,72774.8,-16.23,-16.79,-16.69,0,*6A
1517810729.05,58304,7.13,72772.8,-16.23,-16.79,-16.69,0,*6D
1517810730.34,58305,7.13,72774.5,-16.23,-16.69,-16.69,0,*6D
1517810731.63,58306,7.13,72774.3,-16.23,-16.69,-16.65,0,*62
1517810732.87,58307,7.13,72774.8,-16.23,-16.79,-16.79,0,*6F
1517810734.16,58308,7.06,72768.5,-16.23,-16.69,-16.69,0,*60
1517810735.46,58309,7.13,72774.3,-16.23,-16.65,-16.69,0,*6D
1517810736.72,58310,7.06,72768.5,-16.21,-16.65,-16.69,0,*67
1517810738.01,58311,7.13,72774.8,-16.23,-16.65,-16.69,0,*64
1517810739.3,58312,7.13,72774.3,-16.23,-16.69,-16.65,0,*67
1517810740.55,58313,7.06,72774.5,-16.27,-16.75,-16.83,0,*67
1517810741.84,58314,7.06,72776.3,-16.23,-16.69,-16.69,0,*6D
1517810743.11,58315,7.13,72778.0,-16.23,-16.79,-16.69,0,*6D
1517810744.4,58316,7.06,72776.3,-16.23,-16.65,-16.69,0,*63
1517810745.69,58317,7.13,72776.0,-16.23,-16.69,-16.69,0,*6E
1517810746.98,58318,7.13,72780.8,-16.23,-16.65,-16.69,0,*6D
1517810748.25,58319,7.06,72776.3,-16.27,-16.69,-16.75,0,*69
1517810749.52,58320,7.13,72776.8,-16.23,-16.69,-16.79,0,*6B
1517810750.76,58321,7.13,72776.3,-16.21,-16.79,-16.65,0,*64
1517810752.05,58322,7.13,72778.0,-16.23,-16.69,-16.69,0,*68
1517810753.34,58323,7.06,72776.0,-16.23,-16.65,-16.69,0,*65
1517810754.63,58324,7.13,72776.5,-16.23,-16.69,-16.65,0,*62
1517810755.88,58325,7.06,72776.8,-16.23,-16.83,-16.79,0,*6A
1517810757.14,58326,7.06,72774.5,-16.23,-16.79,-16.69,0,*6D
1517810758.43,58327,7.06,72774.5,-16.23,-16.69,-16.69,0,*6D
1517810759.7,58328,7.06,72778.5,-16.23,-16.79,-16.65,0,*6F
1517810760.99,58329,7.06,72772.3,-16.23,-16.69,-16.69,0,*63
1517810762.26,58330,7.06,72774.8,-16.19,-16.69,-16.65,0,*6E
1517810763.53,58331,7.13,72782.3,-16.23,-16.65,-16.79,0,*67
1517810764.82,58332,7.13,72782.3,-16.23,-16.65,-16.69,0,*65
1517810766.12,58333,7.13,72782.8,-16.27,-16.69,-16.69,0,*6C
1517810767.38,58334,7.13,72780.8,-16.23,-16.79,-16.69,0,*6E
1517810768.65,58335,7.13,72782.3,-16.27,-16.69,-16.75,0,*67
1517810769.87,58336,7.13,72780.3,-16.21,-16.79,-16.79,0,*6F
1517810771.16,58337,7.06,72778.0,-16.23,-16.69,-16.69,0,*6C
1517810772.45,58338,7.06,72778.0,-16.23,-16.65,-16.65,0,*63
1517810773.74,58339,7.06,72776.8,-16.23,-16.65,-16.69,0,*6E
1517810775.03,58340,7.06,72778.3,-16.23,-16.69,-16.69,0,*6C
1517810776.32,58341,7.13,72782.5,-16.23,-16.69,-16.69,0,*6D
1517810777.62,58342,7.06,72782.0,-16.23,-16.65,-16.65,0,*6E
1517810778.91,58343,7.13,72780.5,-16.23,-16.69,-16.69,0,*6F
1517810780.17,58344,7.13,72780.8,-16.21,-16.69,-16.65,0,*66
1517810781.43,58345,7.06,72778.3,-16.21,-16.69,-16.65,0,*67
1517810782.7,58346,7.06,72780.3,-16.23,-16.69,-16.79,0,*6B
1517810783.99,58347,7.13,72780.3,-16.23,-16.65,-16.69,0,*67
1517810785.28,58348,7.13,72780.5,-16.23,-16.69,-16.69,0,*64
1517810786.55,58349,7.13,72782.3,-16.23,-16.69,-16.79,0,*64
1517810787.82,58350,7.13,72782.8,-16.27,-16.69,-16.75,0,*64
1517810789.09,58351,7.06,72780.8,-16.23,-16.65,-16.79,0,*61
1517810790.38,58352,7.13,72786.3,-16.23,-16.69,-16.65,0,*63
1517810791.67,58353,7.06,72782.3,-16.23,-16.69,-16.69,0,*6E
1517810792.92,58354,7.06,72778.5,-16.27,-16.75,-16.83,0,*64
1517810794.21,58355,7.06,72782.0,-16.23,-16.69,-16.69,0,*68
1517810795.5,58356,7.06,72780.0,-16.27,-16.69,-16.69,0,*6F
1517810796.79,58357,7.13,72780.5,-16.23,-16.69,-16.69,0,*6A
1517810798.06,58358,7.06,72782.3,-16.27,-16.69,-16.75,0,*6C
1517810799.35,58359,7.06,72782.3,-16.23,-16.69,-16.69,0,*64
1517810800.64,58360,7.06,72780.5,-16.23,-16.65,-16.69,0,*62
1517810801.91,58361,7.13,72780.3,-16.23,-16.79,-16.69,0,*6E
1517810803.15,58362,7.13,72780.3,-16.21,-16.69,-16.55,0,*61
1517810804.39,58363,7.13,72782.0,-16.21,-16.69,-16.79,0,*6E
1517810805.66,58364,7.06,72780.5,-16.23,-16.65,-16.75,0,*6B
1517810806.9,58365,7.13,72780.5,-16.23,-16.79,-16.79,0,*6B
1517810808.17,58366,7.13,72780.5,-16.23,-16.69,-16.79,0,*69
1517810809.46,58367,7.13,72782.5,-16.23,-16.65,-16.69,0,*65
1517810810.71,58368,7.13,72780.8,-16.27,-16.75,-16.75,0,*62
1517810812.0,58369,7.06,72778.5,-16.23,-16.69,-16.65,0,*6B
1517810813.29,58370,7.06,72776.3,-16.23,-16.69,-16.69,0,*6F
1517810814.58,58371,7.06,72778.0,-16.23,-16.69,-16.69,0,*6E
1517810815.87,58372,7.06,72780.3,-16.23,-16.65,-16.69,0,*61
1517810817.15,58373,7.06,72772.3,-16.23,-16.69,-16.75,0,*61
1517810818.39,58374,7.06,72772.5,-16.27,-16.75,-16.59,0,*61
1517810819.68,58375,7.06,72778.8,-16.23,-16.69,-16.69,0,*6A
1517810820.95,58376,7.06,72778.8,-16.23,-16.69,-16.79,0,*68
1517810822.21,58377,7.13,72778.0,-16.21,-16.69,-16.65,0,*66
1517810823.5,58378,7.13,72780.0,-16.23,-16.69,-16.69,0,*67
1517810824.79,58379,7.13,72780.5,-16.23,-16.69,-16.69,0,*66
1517810826.08,58380,7.13,72778.3,-16.23,-16.69,-16.69,0,*60
1517810827.38,58381,7.13,72776.8,-16.23,-16.69,-16.69,0,*61
1517810828.64,58382,7.06,72776.0,-16.21,-16.69,-16.69,0,*60
1517810829.9,58383,7.13,72776.5,-16.21,-16.69,-16.69,0,*61
1517810831.13,58384,7.06,72776.8,-16.21,-16.79,-16.69,0,*67
1517810832.37,58385,7.06,72776.0,-16.21,-16.79,-16.69,0,*66
1517810833.64,58386,7.13,72784.3,-16.23,-16.79,-16.69,0,*67
1517810834.93,58387,7.13,72784.5,-16.23,-16.69,-16.69,0,*67
1517810836.22,58388,7.06,72782.0,-16.23,-16.65,-16.69,0,*64
1517810837.51,58389,7.13,72784.3,-16.23,-16.69,-16.65,0,*65
1517810838.8,58390,7.13,72784.8,-16.23,-16.69,-16.69,0,*61
1517810840.07,58391,7.06,72780.3,-16.23,-16.69,-16.79,0,*61
1517810841.36,58392,7.06,72780.8,-16.23,-16.65,-16.69,0,*6F
1517810842.65,58393,7.06,72782.3,-16.23,-16.69,-16.69,0,*62
1517810843.95,58394,7.13,72786.5,-16.23,-16.65,-16.65,0,*65
1517810845.24,58395,7.13,72784.5,-16.23,-16.69,-16.69,0,*64
1517810846.53,58396,7.06,72782.3,-16.23,-16.69,-16.69,0,*67
1517810847.79,58397,7.13,72784.8,-16.23,-16.69,-16.79,0,*67
1517810849.06,58398,7.13,72786.3,-16.21,-16.69,-16.65,0,*67
1517810850.35,58399,7.13,72784.3,-16.23,-16.65,-16.69,0,*64
1517810851.62,58400,7.13,72786.5,-16.23,-16.69,-16.79,0,*6E
1517810852.91,58401,7.13,72784.8,-16.23,-16.69,-16.69,0,*6E
1517810854.2,58402,7.13,72782.8,-16.23,-16.69,-16.65,0,*61
1517810855.49,58403,7.13,72782.5,-16.23,-16.65,-16.69,0,*60
1517810856.76,58404,7.13,72782.5,-16.23,-16.69,-16.79,0,*6A
1517810858.02,58405,7.13,72780.5,-16.23,-16.69,-16.79,0,*6B
1517810859.32,58406,7.06,72780.3,-16.23,-16.69,-16.69,0,*69
1517810860.61,58407,7.13,72782.8,-16.23,-16.69,-16.69,0,*68
1517810861.9,58408,7.13,72784.8,-16.23,-16.65,-16.69,0,*6B
1517810863.17,58409,7.06,72780.3,-16.23,-16.65,-16.79,0,*6B
1517810864.46,58410,7.06,72780.8,-16.23,-16.69,-16.69,0,*6E
1517810865.73,58411,7.06,72780.3,-16.27,-16.69,-16.83,0,*6F
1517810866.99,58412,7.06,72782.0,-16.23,-16.69,-16.79,0,*6D
1517810868.29,58413,7.06,72778.5,-16.23,-16.69,-16.69,0,*6D
1517810869.52,58414,7.13,72778.8,-16.21,-16.79,-16.69,0,*69
1517810870.81,58415,7.13,72780.0,-16.23,-16.69,-16.69,0,*6B
1517810872.08,58416,7.06,72778.0,-16.21,-16.65,-16.69,0,*66
1517810873.37,58417,7.13,72774.3,-16.23,-16.69,-16.69,0,*69
1517810874.63,58418,7.13,72774.8,-16.23,-16.79,-16.65,0,*6B
1517810875.88,58419,7.13,72776.5,-16.23,-16.79,-16.79,0,*67
1517810877.17,58420,7.06,72772.8,-16.23,-16.69,-16.69,0,*6D
1517810878.46,58421,7.06,72772.0,-16.23,-16.69,-16.65,0,*60
1517810879.75,58422,7.06,72774.5,-16.23,-16.65,-16.65,0,*6F
1517810881.02,58423,7.06,72772.3,-16.23,-16.65,-16.79,0,*63
1517810882.31,58424,7.13,72776.8,-16.23,-16.69,-16.65,0,*65
1517810883.6,58425,7.13,72776.0,-16.23,-16.69,-16.69,0,*68
1517810884.86,58426,7.13,72776.0,-16.21,-16.65,-16.65,0,*69
1517810886.16,58427,7.06,72776.5,-16.23,-16.65,-16.69,0,*66
1517810887.42,58428,7.13,72778.3,-16.23,-16.79,-16.69,0,*64
1517810888.69,58429,7.06,72774.3,-16.23,-16.79,-16.69,0,*65
1517810889.94,58430,7.13,72776.5,-16.27,-16.83,-16.75,0,*61
1517810891.2,58431,7.13,72776.3,-16.23,-16.69,-16.79,0,*6C
1517810892.47,58432,7.06,72778.5,-16.23,-16.69,-16.79,0,*6F
1517810893.76,58433,7.13,72778.0,-16.23,-16.65,-16.69,0,*63
1517810895.06,58434,7.06,72776.3,-16.23,-16.65,-16.69,0,*64
1517810896.31,58435,7.13,72778.8,-16.27,-16.75,-16.75,0,*6D
1517810897.55,58436,7.06,72778.8,-16.27,-16.75,-16.75,0,*6E
1517810898.82,58437,7.06,72778.5,-16.23,-16.69,-16.79,0,*6A
1517810900.11,58438,7.06,72780.3,-16.23,-16.69,-16.65,0,*68
1517810901.4,58439,7.13,72784.8,-16.23,-16.65,-16.69,0,*69
1517810902.69,58440,7.06,72780.8,-16.23,-16.69,-16.69,0,*6B
1517810903.96,58441,7.13,72780.8,-16.23,-16.69,-16.79,0,*6B